Location: Bats
(43.6587°N, 0.4584°W)
Time: 09:48:14
(UTC+00:00)

Meteor 1-15 Rocket - Pass Details

Date: 12 January 2026
Orbit: 839 x 906 km, 81.2° (Epoch: 10 February)

Event Time Altitude Azimuth Distance (km) Brightness Sun altitude
Rises 18:01:43 0° 350° (N) 3,542 7.4 -13.2°
Reaches altitude 10° 18:04:12 10° 351° (N) 2,597 6.7 -13.6°
Maximum altitude 18:10:09 86° 80° (E) 911 4.3 -14.7°
Drops below altitude 10° 18:16:01 10° 170° (S) 2,558 6.8 -15.7°
Sets 18:18:26 0° 171° (S) 3,486 7.5 -16.1°
